This is the latest recevied weather packets stored in our database for station/object N7CW. If no packets are shown the sender has not sent any weather packets the latest 10 day(s).
| Time | Temp. | Humidity | Pressure | Rain* | Wind** | Luminosity | Snow |
|---|---|---|---|---|---|---|---|
| 1776980885 | 17.78° C | 21% | 1014.9 hPa | 0 mm | - | 649 W/m² | - |
| 1776980584 | 18.33° C | 21% | 1014.9 hPa | 0 mm | - | 701 W/m² | - |
| 1776980278 | 17.78° C | 21% | 1015.3 hPa | 0 mm | - | 643 W/m² | - |
| 1776979975 | 17.22° C | 21% | 1014.9 hPa | 0 mm | - | 744 W/m² | - |
| 1776979670 | 18.33° C | 20% | 1014.9 hPa | 0 mm | - | 609 W/m² | - |
| 1776979368 | 17.78° C | 21% | 1014.9 hPa | 0 mm | - | 685 W/m² | - |
| 1776979064 | 17.78° C | 21% | 1014.8 hPa | 0 mm | - | 748 W/m² | - |
| 1776978760 | 18.89° C | 19% | 1014.9 hPa | 0 mm | - | 754 W/m² | - |
| 1776978458 | 18.89° C | 20% | 1015.1 hPa | 0 mm | - | 744 W/m² | - |
| 1776978156 | 18.33° C | 20% | 1015.2 hPa | 0 mm | - | 784 W/m² | - |
| 1776977853 | 17.78° C | 20% | 1015.4 hPa | 0 mm | - | 811 W/m² | - |
| 1776977549 | 17.78° C | 20% | 1015.4 hPa | 0 mm | - | 731 W/m² | - |
| 1776977245 | 17.78° C | 20% | 1015.3 hPa | 0 mm | - | 770 W/m² | - |
| 1776976942 | 17.78° C | 21% | 1015.3 hPa | 0 mm | - | 733 W/m² | - |
| 1776976638 | 17.78° C | 22% | 1015.4 hPa | 0 mm | - | 495 W/m² | - |
| 1776976333 | 17.22° C | 22% | 1015.4 hPa | 0 mm | - | 793 W/m² | - |
| 1776976029 | 17.22° C | 21% | 1015.8 hPa | 0 mm | - | 548 W/m² | - |
| 1776975726 | 17.22° C | 22% | 1015.5 hPa | 0 mm | - | 433 W/m² | - |
| 1776975423 | 17.22° C | 22% | 1015.3 hPa | 0 mm | - | 420 W/m² | - |
| 1776975119 | 16.67° C | 22% | 1015.7 hPa | 0 mm | - | 755 W/m² | - |
| 1776974816 | 17.22° C | 22% | 1015.5 hPa | 0 mm | - | 637 W/m² | - |
| 1776974514 | 17.78° C | 22% | 1015.7 hPa | 0 mm | - | 849 W/m² | - |
| 1776974210 | 16.67° C | 21% | 1015.7 hPa | 0 mm | - | 502 W/m² | - |
| 1776973908 | 16.67° C | 22% | 1015.9 hPa | 0 mm | - | 681 W/m² | - |
| 1776973605 | 17.78° C | 21% | 1015.7 hPa | 0 mm | - | 847 W/m² | - |
* Rain latest hour (hover to see other rain measurements)
** Current wind speed in m/s (hover to see current wind gust speed)